Regional Weather Roundup
Issued by NWS Cleveland, OH

Home | Current Version | Previous Version | Graphics & Text | Print | Product List | Glossary On
Versions: 1 2 3 4 5 6 7 8 9 10 11 12 13 14 15 16 17 18 19 20 21 22 23 24 25 26 27 28 29 30 31 32 33 34 35 36 37 38 39 40 41 42 43 44 45 46 47 48 49 50
000
ASUS41 KCLE 271302
RWRCLE
OHIO REGIONAL WEATHER ROUNDUP
NATIONAL WEATHER SERVICE CLEVELAND, OH
800 AM EST FRI FEB 27 2015

NOTE: "FAIR" INDICATES FEW OR NO CLOUDS BELOW 12,000 FEET WITH NO
SIGNIFICANT WEATHER AND/OR OBSTRUCTIONS TO VISIBILITY.

OHZ001>008-015>018-024>027-034-035-043-044-271400-
   NORTHWEST OHIO

CITY           SKY/WX    TMP DP  RH WIND       PRES   REMARKS
DEFIANCE       CLEAR     -8 -13  78 CALM      30.51R
FINDLAY        PTCLDY    -3  -8  79 W3        30.48R
TOLEDO EXPRESS CLEAR     -9 -13  83 CALM      30.49R
TOLEDO EXEC    CLEAR     -4  -8  83 CALM      30.51R
LIMA           CLEAR     -3  -8  79 CALM      30.47R HAZE
$$

OHZ009>014-019>023-028>033-038-089-271400-
   NORTHEAST OHIO

CITY           SKY/WX    TMP DP  RH WIND       PRES   REMARKS
CLE-HOPKINS    PTCLDY    -2  -7  79 SW3       30.51R
CLE-LAKEFRONT  CLEAR      4   0  83 CALM      30.50R
CUY CO. ARPT   CLEAR     -4  -8  84 S6        30.47R WCI -16
LORAIN-ELYRIA  PTCLDY    -8 -13  78 CALM      30.49R
ASHTABULA      MOCLDY    -8 -14  74 CALM      30.45R
AKRON-CANTON   PTCLDY    -1  -7  75 NW6       30.43R WCI -13
WOOSTER        PTCLDY   -10 -15  78 CALM      30.45R
MANSFIELD      CLOUDY     3  -1  83 CALM      30.43R
YOUNGSTOWN     CLEAR     -3  -8  79 NW5       30.42R WCI -13
$$

OHZ042-051>053-060>062-070>072-077>081-271400-
  SOUTHWEST OHIO

CITY           SKY/WX    TMP DP  RH WIND       PRES   REMARKS
CINC-COVINGTON PTCLDY     7   0  73 CALM      30.50R
CINC-LUNKEN    MOCLDY    11   3  70 NW6       30.55R WCI   1
HAMILTON       CLEAR      2  -2  83 CALM      30.54R
DAYTON         PTCLDY     2  -4  76 W5        30.48R WCI  -8
WRIGHT-PAT AFB MOCLDY     8   4  83 W5        30.49R WCI   0
DAYTON GENERAL CLOUDY     6   1  80 CALM      30.47R HAZE
WILMINGTON     CLOUDY     7   3  84 SW3       30.46R FOG
$$

OHZ036-037-039>041-045>050-054>059-063>069-073>076-082>088-271400-
  CENTRAL AND SOUTHEAST OHIO

CITY           SKY/WX    TMP DP  RH WIND       PRES   REMARKS
COLUMBUS       MOCLDY     6   2  83 CALM      30.48R
OSU AIRPORT    LGT SNOW   4   1  88 W3        30.48R FOG
BOLTON FIELD   MOCLDY     3   0  85 W3        30.48R
RICKENBACK AFB CLOUDY     1  -3  84 CALM      30.49R FOG
NEWARK         CLOUDY     5   0  79 CALM      30.48R
MARION         LGT SNOW   2  -2  83 NE7       30.47R FOG     WCI -11
LANCASTER      PTCLDY    -3  -6  87 CALM      30.49R FOG
ZANESVILLE     CLEAR      2  -2  83 CALM      30.48R
NEW PHILLY     CLEAR      3  -4  72 NW5       30.48R WCI  -6
$$



USA.gov is the U.S. government's official web portal to all federal, state and local government web resources and services.